Regional Weather Roundup
Issued by NWS Cleveland, OH

Home | Current Version | Previous Version | Text Only | Print | Product List | Glossary Off
Versions: 1 2 3 4 5 6 7 8 9 10 11 12 13 14 15 16 17 18 19 20 21 22 23 24 25 26 27 28 29 30 31 32 33 34 35 36 37 38 39 40 41 42 43 44 45 46 47 48 49 50

000
ASUS41 KCLE 302102
RWRCLE
OHIO REGIONAL WEATHER ROUNDUP
NATIONAL WEATHER SERVICE CLEVELAND, OH
500 PM EDT SUN AUG 30 2015

NOTE: "FAIR" INDICATES FEW OR NO CLOUDS BELOW 12,000 FEET WITH NO
SIGNIFICANT WEATHER AND/OR OBSTRUCTIONS TO VISIBILITY.

OHZ001>008-015>018-024>027-034-035-043-044-302200-
   NORTHWEST OHIO

CITY           SKY/WX    TMP DP  RH WIND       PRES   REMARKS
DEFIANCE       MOSUNNY   85  64  49 W6        30.03S
FINDLAY        PTSUNNY   83  67  58 S6        30.02F
TOLEDO EXPRESS SUNNY     84  67  56 SW12      30.02S
TOLEDO EXEC    MOSUNNY   86  66  51 SW13      30.02F
LIMA           PTSUNNY   79  68  69 S17G23    30.05S THUNDER
$$

OHZ009>014-019>023-028>033-038-089-302200-
   NORTHEAST OHIO

CITY           SKY/WX    TMP DP  RH WIND       PRES   REMARKS
CLE-HOPKINS    MOSUNNY   84  66  54 SW13      30.05F
CLE-LAKEFRONT  MOSUNNY   81  71  71 N5        30.02F
CUY CO. ARPT   LGT RAIN  77  70  78 NW6       30.05F
LORAIN-ELYRIA  MOSUNNY   83  66  56 SW10      30.04F
ASHTABULA      PTSUNNY   80  69  69 N5        30.06F
AKRON-CANTON   PTSUNNY   83  66  56 SW9       30.07F
WOOSTER        MOSUNNY   80  68  66 CALM      30.07F
MANSFIELD      MOSUNNY   84  64  50 SW9       30.07F
YOUNGSTOWN     PTSUNNY   82  66  58 SW8       30.07F
$$

OHZ042-051>053-060>062-070>072-077>081-302200-
  SOUTHWEST OHIO

CITY           SKY/WX    TMP DP  RH WIND       PRES   REMARKS
CINC-COVINGTON PTSUNNY   83  63  50 S13       30.06F
CINC-LUNKEN    PTSUNNY   85  70  60 S12       30.04F
HAMILTON       MOSUNNY   87  68  52 VRB5      30.04F THUNDER HX  90
DAYTON         PTSUNNY   83  67  58 SW12      30.06F
WRIGHT-PAT AFB MOSUNNY   84  68  58 S8        30.04F
DAYTON GENERAL TSTM      83  67  58 S7        30.05F
WILMINGTON     MOSUNNY   84  67  56 S9        30.06F
$$

OHZ036-037-039>041-045>050-054>059-063>069-073>076-082>088-302200-
  CENTRAL AND SOUTHEAST OHIO

CITY           SKY/WX    TMP DP  RH WIND       PRES   REMARKS
COLUMBUS       PTSUNNY   85  65  51 SW9       30.04F
OSU AIRPORT    MOSUNNY   86  67  52 S9        30.05F
BOLTON FIELD   PTSUNNY   84  70  61 SW6       30.06F
RICKENBACK AFB PTSUNNY   87  66  50 S10       30.04F
NEWARK         MOSUNNY   85  66  53 S9        30.05F
MARION         LGT RAIN  82  66  58 S8        30.06S
LANCASTER      MOSUNNY   85  67  54 SW10      30.06F
ZANESVILLE     MOSUNNY   86  63  45 S14G20    30.06S
NEW PHILLY     MOSUNNY   84  66  54 SW5       30.07S
$$


USA.gov is the U.S. government's official web portal to all federal, state and local government web resources and services.